• Join FlightAware (Why Join?)
  • Login
  • US Flag 
02:54AM EST


 

Airport Tracker/Info


-or-


 

Live Flight TrackerFlight Track Log ✈ AWI3778 ✈ 07-May-2013 ✈ KPHL - KBTV

Flight Track Log - Related Links

Times and Time Zones

All times are in EDT time to prevent confusion due to time zone crossing. See the AWI3778 flight status page for this flight to view local times or setup timezone preferences in your user account.

Time Position Orientation Groundspeed Altitude Reporting Facility
EDT Latitude Longitude Course Direction KTS MPH feet Rate Location/Type
11:56AM 39.8833 -75.2167 106° East 148 170 900  Level Philadelphia TRACON
11:58AM 39.8550 -75.0922 106° East 194 223 4,800 2,172 Climbing New York Center
11:59AM 39.8394 -75.0044 103° East 233 268 7,200 2,231 Climbing New York Center
12:00PM 39.8242 -74.9117 102° East 251 289 9,300 2,017 Climbing New York Center
12:01PM 39.8108 -74.8108 100° East 268 308 11,200 2,017 Climbing New York Center
12:02PM 39.8019 -74.7050 96° East 280 322 13,300 1,636 Climbing New York Center
12:03PM 39.8753 -74.6281 39° Northeast 279 321 14,500 1,388 Climbing New York Center
12:04PM 39.9592 -74.5514 35° Northeast 311 358 16,100 1,537 Climbing New York Center
12:05PM 40.0431 -74.4692 37° Northeast 346 398 17,600 1,140 Climbing New York Center
12:06PM 40.1206 -74.3947 36° Northeast 372 428 18,400 1,190 Climbing New York Center
12:07PM 40.2172 -74.2964 38° Northeast 384 442 20,000 1,271 Climbing New York Center
12:08PM 40.3075 -74.2086 37° Northeast 389 448 20,900 1,000 Climbing New York Center
12:09PM 40.3997 -74.1150 38° Northeast 403 464 22,000 1,082 Climbing New York Center
12:10PM 40.5131 -74.0794 13° North 403 464 23,100 915 Climbing New York Center
12:11PM 40.6289 -74.0442 13° North 405 466 23,800 915 Climbing New York Center
12:12PM 40.7386 -73.9864 22° Northeast 415 478 24,900 404 Climbing New York Center
12:14PM 40.9669 -73.9408 North 450 518 25,000 34 Climbing Boston Center
12:15PM 41.0883 -73.9133 10° North 449 517 25,000  Level Boston Center
12:16PM 41.2094 -73.8886 North 439 505 25,000  Level Boston Center
12:17PM 41.3264 -73.8636 North 439 505 25,000  Level Boston Center
12:18PM 41.4497 -73.8358 10° North 434 499 25,000  Level Boston Center
12:19PM 41.5731 -73.8081 10° North 434 499 25,000  Level Boston Center
12:20PM 41.6942 -73.7828 North 434 499 25,000  Level Boston Center
12:21PM 41.8217 -73.7578 North 428 493 25,000  Level Boston Center
12:22PM 41.9450 -73.7325 North 428 493 25,000  Level Boston Center
12:23PM 42.0411 -73.7119 North 428 493 25,000  Level Boston Center
12:24PM 42.1478 -73.6806 12° North 433 498 25,000  Level Boston Center
12:25PM 42.2897 -73.6497 North 428 493 25,000  Level Boston Center
12:26PM 42.4089 -73.6294 North 428 493 25,000  Level Boston Center
12:27PM 42.5278 -73.6036 North 428 493 25,000  Level Boston Center
12:28PM 42.6469 -73.5778 North 428 493 25,000  Level Boston Center
12:29PM 42.7639 -73.5514 North 428 493 25,000 -850 Level Boston Center
12:30PM 42.8933 -73.5197 10° North 428 493 23,300 -1,000 Descending Boston Center
12:31PM 43.0042 -73.4933 10° North 416 479 23,000 -150 Descending Boston Center
12:32PM 43.1106 -73.4697 North 403 464 23,000  Level Boston Center
12:33PM 43.2214 -73.4403 11° North 398 458 23,000  Level Boston Center
12:34PM 43.3361 -73.4164 North 398 458 23,000 -400 Level Boston Center
12:35PM 43.4511 -73.3867 11° North 409 471 22,200 -1,400 Descending Boston Center
12:36PM 43.5536 -73.3253 23° Northeast 409 471 20,200 -2,000 Descending Boston Center
12:37PM 43.6542 -73.2664 23° Northeast 404 465 18,200 -1,950 Descending Boston Center
12:38PM 43.7525 -73.2103 22° Northeast 392 451 16,300 -1,950 Descending Boston Center
12:39PM 43.8525 -73.2031 North 365 420 14,300 -2,000 Descending Boston Center
12:40PM 43.9567 -73.1928 North 365 420 12,300 -1,650 Descending Boston Center
12:41PM 44.0567 -73.1856 North 365 420 11,000 -1,050 Descending Boston Center
12:42PM 44.1483 -73.2039 352° North 348 400 10,200 -1,300 Descending Boston Center
12:43PM 44.2253 -73.2308 346° North 304 350 8,400 -1,800 Descending Boston Center
12:44PM 44.2958 -73.2756 336° Northwest 279 321 6,600 -1,800 Descending Boston Center
12:45PM 44.3622 -73.3169 336° Northwest 267 307 4,800 -1,300 Descending Boston Center
12:46PM 44.4264 -73.3500 340° North 251 289 4,000 -750 Descending Boston Center
12:47PM 44.4767 -73.3217 22° Northeast 206 237 3,300 -850 Descending Boston Center
12:48PM 44.5106 -73.2697 48° Northeast 175 201 2,300 -950 Descending Boston Center
12:49PM 44.5128 -73.2231 86° East 134 154 1,400 -824 Descending Boston Center
12:50PM 44.4839 -73.1703 127° Southeast 121 139 500 -455 Descending Boston Center
12:51PM 44.4717 -73.1528 134° Southeast 118 136 400 11,157 Descending Boston Center
12:52PM 44.4511 -73.1003 119° Southeast 118 136 23,000 22,600 Climbing Boston Center